Regional Weather Roundup
Issued by NWS

Home | Current Version | Previous Version | Text Only | Print | Product List | Glossary Off
Versions: 1 2 3 4 5 6 7 8 9 10 11 12 13 14 15 16 17 18 19 20 21 22 23 24 25 26 27 28 29 30 31 32 33 34 35 36 37 38 39 40 41 42 43 44 45 46 47 48 49 50

000
ASUS43 KTOP 310210
RWRKS

STATE WEATHER ROUNDUP
NATIONAL WEATHER SERVICE DODGE CITY KS
 FOR NATIONAL WEATHER SERVICE GOODLAND KS
900 PM CDT THU JUL 30 2015

NOTE:  "FAIR" INDICATES FEW OR NO CLOUDS BELOW 12,000 FEET WITH NO
SIGNIFICANT WEATHER AND/OR OBSTRUCTIONS TO VISIBILITY.

KSZ001>006-013>018-027>032-041>047-310300-
...NORTHWEST KANSAS...

CITY           SKY/WX    TMP DP  RH WIND       PRES   REMARKS
GOODLAND       PTCLDY    73  60  63 SW5       30.26R
HAYS           CLEAR     79  64  61 SE9       30.16R
HILL CITY      CLEAR     80  66  62 S7        30.16R
RUSSELL        CLEAR     77  68  73 SE8       30.14R
$$

KSZ061>065-074>080-084>089-310300-
...SOUTHWEST KANSAS...

CITY           SKY/WX    TMP DP  RH WIND       PRES   REMARKS
DODGE CITY     MOCLDY    75  68  78 S7        30.20R
ELKHART          N/A     74  69  85 S1          N/A
GARDEN CITY    MOCLDY    75  70  84 SW5       30.19R
GREAT BEND     CLEAR     79  66  65 SE8       30.15R
LIBERAL        CLOUDY    79  66  65 E8        30.19R
PRATT          PTCLDY    77  68  73 E5        30.18R
$$

KSZ066>073-081>083-090>101-310300-
...SOUTHEAST KANSAS...

CITY           SKY/WX    TMP DP  RH WIND       PRES   REMARKS
CHANUTE        MOCLDY    80  63  55 E5        30.13S
COFFEYVILLE    MOCLDY    79  72  79 CALM      30.11S
HUTCHINSON     CLEAR     76  67  73 SE5       30.15S
MEDICINE LODGE   N/A     78  71  79 E5        30.13R
NEWTON         CLEAR     75  66  73 SE3       30.18S
PARSONS        CLOUDY    77  75  93 N3        30.13S
WICHITA INTL   PTCLDY    79  69  71 E8        30.14R
WICHITA JABRA  CLEAR     76  70  82 E5        30.14S
WICHITA MCCONL CLEAR     78  69  74 E7        30.14S
WINFIELD       CLEAR     78  69  73 E3        30.14S
$$

KSZ007>012-019>026-033>040-048>060-102>105-310300-
...NORTHEAST KANSAS...

CITY           SKY/WX    TMP DP  RH WIND       PRES   REMARKS
CONCORDIA      CLEAR     74  68  81 SE5       30.14R
EMPORIA        CLEAR     75  65  70 SE5       30.14S
LAWRENCE       PTCLDY    72  69  90 CALM      30.13S
MANHATTAN      CLEAR     76  66  71 CALM      30.13R
OLATHE IND     PTCLDY    74  60  61 S5        30.15S
OLATHE EXE     PTCLDY    76  61  59 S3        30.14S
SALINA         CLEAR     78  68  71 S8        30.14R
TOPEKA BILLARD PTCLDY    77  69  76 CALM      30.13S
TOPEKA FORBES  PTCLDY    77  64  64 S5        30.13F
$$


USA.gov is the U.S. government's official web portal to all federal, state and local government web resources and services.